Date,TemperatureHighF,TemperatureAvgF,TemperatureLowF,DewpointHighF,DewpointAvgF,DewpointLowF,HumidityHigh,HumidityAvg,HumidityLow,PressureMaxIn,PressureMinIn,WindSpeedMaxMPH,WindSpeedAvgMPH,GustSpeedMaxMPH,PrecipitationSumIn
2013-2-7,28,26,24,-1,-3,-4,33,29,24,30.52,30.47,11,1,11,0.00
2013-2-8,24,20,17,18,14,-1,90,78,32,30.50,29.69,27,6,27,0.00
2013-2-9,39,20,16,25,14,4,91,78,56,30.18,29.63,30,6,30,0.00
2013-2-10,46,25,13,18,6,1,66,47,24,30.39,30.18,12,2,12,0.00
2013-2-11,36,27,12,32,21,3,90,77,65,30.34,29.61,5,0,5,0.00
2013-2-12,54,39,33,35,29,27,92,69,42,29.86,29.58,19,5,19,0.00
2013-2-13,55,37,26,33,24,20,82,62,38,29.86,29.72,10,2,10,0.00
2013-2-14,52,36,27,29,23,20,82,59,37,29.99,29.70,13,2,13,0.00
2013-2-15,51,37,22,33,27,17,92,69,48,29.99,29.88,14,3,14,0.00
2013-2-16,41,35,28,32,25,14,88,69,52,29.95,29.73,13,2,13,0.00
2013-2-17,30,22,17,16,10,2,86,60,44,29.73,29.38,29,9,29,0.00
2013-2-18,36,24,15,8,2,-3,56,40,25,30.13,29.65,21,7,21,0.00
2013-2-19,46,35,23,38,20,3,92,56,34,30.15,29.57,10,2,10,0.00
2013-2-20,40,34,27,39,21,12,94,62,42,29.76,29.52,21,6,21,0.00
2013-2-21,36,28,24,15,13,10,66,55,37,30.19,29.75,20,6,20,0.00
2013-2-22,50,34,25,25,20,15,75,58,35,30.39,30.19,16,2,16,0.00
2013-2-23,39,35,31,31,28,22,88,75,65,30.34,29.94,8,1,8,0.00
2013-2-24,35,34,31,33,31,29,92,91,88,29.94,29.72,19,3,19,0.00
2013-2-25,42,35,30,34,31,27,91,86,71,30.24,29.90,5,1,6,0.00
2013-2-26,46,36,30,37,30,26,92,80,61,30.34,30.18,7,1,7,0.00
2013-2-27,49,37,34,39,34,29,93,89,67,30.19,29.57,20,4,20,0.93
2013-2-28,49,40,34,40,35,32,93,81,62,29.64,29.53,11,2,14,0.00
2013-3-1,42,38,33,34,31,28,89,75,63,29.69,29.54,10,2,10,0.00
2013-3-2,48,39,32,33,28,25,78,65,52,29.68,29.62,10,3,10,0.00
2013-3-3,43,36,31,34,28,25,82,72,63,29.65,29.56,13,3,13,0.00
2013-3-4,43,35,31,28,24,22,79,66,49,29.74,29.58,22,6,22,0.00
2013-3-5,53,38,31,33,27,22,87,66,43,30.08,29.74,17,3,17,0.01
2013-3-6,39,36,33,35,32,29,92,86,70,30.15,30.06,26,6,26,0.13
2013-3-7,35,32,31,31,29,27,92,87,81,30.12,30.02,26,6,26,0.08
2013-3-8,42,35,30,33,28,22,94,77,49,30.17,29.97,21,5,21,0.12
2013-3-9,57,38,26,30,24,18,84,59,30,30.36,30.16,17,2,17,0.03
2013-3-10,50,35,22,37,28,18,88,75,53,30.42,30.31,8,1,8,0.00
2013-3-11,54,43,32,40,34,29,91,73,46,30.32,30.14,11,4,11,0.00
2013-3-12,55,48,40,53,45,37,95,89,80,30.16,29.72,12,2,12,0.40
2013-3-13,59,46,34,52,32,21,95,62,36,29.78,29.71,18,4,18,0.00
2013-3-14,40,34,31,24,19,14,73,55,37,29.78,29.70,16,4,16,0.00
2013-3-17,40,33,25,10,5,1,37,32,26,30.33,30.04,18,5,18,0.00
2013-3-18,41,30,16,27,8,0,86,42,22,30.46,30.25,10,2,10,0.00
2013-3-19,35,32,27,32,29,24,93,89,80,30.25,29.65,17,3,17,0.12
2013-3-20,38,32,26,27,23,20,91,71,51,29.81,29.70,23,5,23,0.03
2013-3-21,41,32,21,28,21,14,86,65,39,29.81,29.61,8,2,8,0.18
2013-3-22,47,35,28,27,22,18,83,58,36,29.73,29.60,15,4,15,0.16
2013-3-23,46,36,28,24,21,18,75,54,38,29.77,29.63,21,6,21,0.00
2013-3-24,52,40,33,28,24,21,67,53,38,29.82,29.74,16,4,17,0.00
2013-3-25,49,38,29,35,29,24,80,70,56,29.78,29.56,17,3,17,0.00
2013-3-26,56,44,36,28,24,19,71,48,29,29.78,29.56,21,4,21,0.00
2013-3-27,60,45,30,32,25,20,72,49,29,29.88,29.74,16,4,16,0.00
2013-3-28,52,44,37,36,33,28,86,66,43,30.02,29.88,12,2,12,0.01
2013-3-29,62,47,37,38,32,29,77,57,34,30.05,29.97,15,3,15,0.00
2013-3-30,63,48,36,33,25,16,74,45,20,30.11,30.01,16,3,16,0.00
2013-3-31,61,45,27,40,25,20,77,50,21,30.12,29.77,19,4,19,0.05
2013-4-1,62,48,35,47,36,12,90,66,35,29.78,29.51,20,5,20,0.32
2013-4-2,42,36,29,16,12,9,52,39,28,29.92,29.78,23,7,23,0.00
2013-4-3,47,38,30,15,11,4,50,34,18,30.14,29.90,22,8,22,0.00
2013-4-4,56,44,31,23,16,8,53,34,17,30.29,30.01,16,5,16,0.00
2013-4-5,62,50,39,30,25,19,68,41,21,30.02,29.64,23,5,23,0.00
2013-4-6,46,39,31,22,10,1,52,33,17,30.34,29.89,21,5,21,0.00
2013-4-7,57,43,26,39,24,13,73,51,27,30.34,29.98,22,5,22,0.00
2013-4-8,66,54,44,42,37,30,88,58,29,30.11,29.95,14,3,14,0.00
2013-4-9,72,57,46,52,43,37,86,62,39,30.10,29.87,18,3,18,0.04
2013-4-10,62,52,46,51,46,40,92,79,63,30.03,29.87,7,2,7,0.56
2013-4-11,55,48,43,47,39,26,93,74,41,30.16,29.85,10,2,10,0.12
2013-4-12,43,38,36,36,33,27,93,83,55,30.20,29.82,17,3,17,0.42
2013-4-13,55,43,35,41,36,33,93,78,51,29.87,29.78,14,3,14,0.09
2013-4-14,58,48,41,39,33,27,85,57,32,30.22,29.92,17,4,17,0.00
2013-4-15,59,47,33,37,32,28,83,59,33,30.40,30.22,9,2,11,0.00
2013-4-16,68,53,38,52,41,33,90,66,41,30.41,30.04,24,6,25,0.00
2013-4-17,69,58,46,53,41,28,79,57,25,30.34,30.05,17,5,17,0.00
2013-4-18,64,52,36,43,33,27,79,51,29,30.45,30.16,18,4,18,0.00
2013-4-19,77,65,53,62,56,43,93,75,53,30.17,29.63,25,8,25,0.00
2013-4-20,69,56,46,63,50,37,91,83,48,29.86,29.61,20,6,20,0.36
2013-4-21,54,46,34,28,22,16,66,40,23,30.70,30.22,20,3,20,0.00
2013-4-22,58,44,33,35,29,24,81,59,30,30.78,30.61,17,3,17,0.00
2013-4-23,42,40,36,40,36,28,93,86,70,30.62,30.16,17,4,17,0.02
2013-4-24,76,58,42,52,45,36,93,66,24,30.16,29.78,17,4,17,0.00
2013-4-25,67,58,44,52,36,24,89,49,23,30.28,29.82,15,5,15,0.02
2013-4-26,66,49,37,37,31,29,74,54,28,30.43,30.28,13,2,13,0.00
2013-4-30,74,64,48,31,27,21,49,27,18,30.39,30.29,13,2,13,0.00
2013-5-1,76,58,38,40,33,28,77,43,19,30.48,30.38,12,2,12,0.00
2013-5-2,85,53,42,47,38,34,81,59,18,30.51,30.36,17,1,17,0.00
2013-5-3,64,52,43,44,40,36,84,65,43,30.54,30.39,12,2,15,0.00
2013-5-4,66,52,41,47,38,29,86,61,29,30.39,30.31,13,2,13,0.00
2013-5-5,67,44,36,43,35,32,87,73,37,30.35,30.25,12,1,12,0.00
2013-5-6,69,42,38,46,36,33,91,80,38,30.31,30.23,7,1,7,0.00
2013-5-7,81,66,43,58,50,39,88,60,26,30.18,30.09,12,3,12,0.00
2013-5-8,78,65,54,63,57,49,88,76,51,30.22,30.07,14,2,14,0.05
2013-5-9,67,60,56,62,57,54,93,90,79,30.07,29.90,6,1,9,0.52
2013-5-10,82,61,56,63,56,54,95,85,41,29.97,29.90,9,1,9,0.00
2013-5-11,72,64,59,62,59,54,93,85,70,29.92,29.71,16,3,16,0.18
2013-5-12,72,62,51,61,51,29,95,69,34,29.81,29.57,18,3,18,0.06
2013-5-13,61,52,43,33,29,26,66,43,29,30.04,29.81,17,4,17,0.00
2013-5-14,63,53,41,36,31,26,71,45,27,30.06,29.98,19,3,19,0.00
2013-5-15,69,54,36,52,38,29,87,61,24,30.06,29.68,17,4,17,0.04
2013-5-16,83,67,45,50,41,32,92,48,18,29.84,29.63,21,5,21,0.01
2013-5-17,71,61,51,44,40,35,68,47,29,30.23,29.83,17,3,17,0.00
2013-5-18,78,60,44,49,43,35,85,57,24,30.32,30.22,9,1,9,0.00
2013-5-19,74,59,52,56,50,46,92,75,46,30.36,30.23,10,1,10,0.27
2013-5-20,83,68,56,65,60,54,95,76,50,30.23,29.93,9,2,9,0.09
2013-5-21,75,61,51,66,56,48,92,85,69,30.06,29.91,12,2,12,0.04
2013-5-22,65,56,51,60,53,48,95,90,79,30.12,29.90,9,1,9,1.35
2013-5-23,78,64,54,70,60,52,95,89,72,29.95,29.80,16,3,16,0.50
2013-5-24,74,64,50,66,60,47,95,87,69,29.85,29.66,18,3,18,1.20
2013-5-25,53,49,42,51,46,38,94,92,84,29.84,29.72,14,3,14,0.38
2013-5-26,60,49,40,45,40,37,93,72,51,30.09,29.70,17,4,17,0.10
2013-5-27,73,58,40,46,40,34,91,55,25,30.19,30.08,20,2,20,0.00
2013-5-28,77,61,43,48,43,38,87,58,26,30.25,30.17,10,1,10,0.00
2013-5-29,69,62,55,64,58,48,94,87,78,30.20,30.00,4,1,4,0.54
2013-5-30,90,76,60,69,64,58,96,69,40,30.09,30.01,11,2,11,0.01
2013-5-31,97,82,64,71,65,60,90,60,33,30.10,29.93,12,2,12,0.00
2013-6-1,96,83,68,72,65,58,85,59,30,29.98,29.85,13,4,13,0.04
2013-6-2,93,80,71,71,67,62,91,67,36,29.88,29.71,19,5,19,0.08
2013-6-3,79,71,62,68,62,46,94,76,45,29.86,29.76,11,3,11,0.28
2013-6-4,72,64,54,48,45,41,67,52,37,30.11,29.83,15,3,15,0.00
2013-6-5,78,65,50,52,47,42,85,56,30,30.20,30.09,9,2,9,0.00
2013-6-6,79,66,55,58,52,49,84,62,40,30.20,30.12,9,1,9,0.00
2013-6-7,60,56,53,55,53,51,94,89,77,30.13,29.85,8,1,8,1.59
2013-6-8,80,65,53,64,58,51,95,79,56,30.00,29.65,10,3,10,0.86
2013-6-9,82,70,56,61,56,53,92,63,38,30.17,30.00,14,2,14,0.00
2013-6-10,74,64,56,60,56,51,92,77,59,30.22,30.04,5,1,5,0.48
2013-6-11,63,58,55,58,56,53,94,91,82,30.05,29.60,9,2,10,0.80
2013-6-12,73,64,57,58,56,53,94,76,56,29.83,29.57,14,3,14,0.01
2013-6-13,72,60,53,59,54,49,92,82,59,29.82,29.72,8,1,8,0.34
2013-6-14,77,64,54,62,55,52,94,76,47,29.78,29.67,8,1,8,0.49
2013-6-15,81,71,60,54,48,41,71,49,26,29.94,29.78,11,2,11,0.00
2013-6-16,80,68,54,60,54,48,86,63,37,29.94,29.71,16,2,16,0.00
2013-6-17,88,71,58,64,59,54,91,70,38,29.92,29.78,14,3,14,0.09
2013-6-18,78,62,59,65,59,56,94,89,59,29.96,29.90,5,1,5,0.47
2013-6-19,80,67,55,61,52,43,93,64,32,30.16,29.93,8,1,8,0.00
2013-6-20,81,68,51,58,51,47,87,59,33,30.27,30.16,11,2,11,0.00
2013-6-21,88,73,58,63,56,47,86,58,27,30.26,30.20,9,2,9,0.00
2013-6-22,87,75,62,67,61,57,89,65,43,30.23,30.11,13,3,13,0.00
2013-6-23,92,79,65,72,66,60,86,66,48,30.16,29.97,14,3,14,0.01
2013-6-24,99,83,72,72,69,64,91,67,36,30.02,29.87,13,3,13,0.12
2013-6-25,94,81,70,72,69,66,91,69,43,29.94,29.73,13,3,13,0.22
2013-6-26,89,74,65,74,69,62,93,86,54,29.88,29.73,7,1,7,1.00
2013-6-27,72,65,61,67,63,60,95,91,84,29.90,29.78,5,1,5,0.22
2013-6-28,83,68,58,74,65,56,96,88,72,29.79,29.49,12,2,12,0.24
2013-6-29,86,77,72,72,69,66,92,76,53,29.73,29.52,14,4,14,0.00
2013-6-30,89,79,68,73,69,64,93,74,50,29.94,29.72,12,4,12,0.00
2013-7-1,82,75,72,76,71,68,94,87,75,30.09,29.94,8,1,8,0.93
2013-7-2,84,70,61,76,68,59,95,91,72,30.23,30.08,6,1,8,0.17
2013-7-3,90,76,61,75,68,59,95,79,56,30.23,30.13,10,3,10,0.00
2013-7-4,95,84,73,77,73,69,92,70,49,30.21,30.08,13,4,13,0.00
2013-7-5,97,87,77,77,74,71,87,67,47,30.16,30.03,12,4,12,0.00
2013-7-6,94,85,76,75,70,63,87,64,47,30.08,29.98,10,3,10,0.00
2013-7-7,94,82,69,75,68,63,83,65,45,30.03,29.91,10,2,10,0.00
2013-7-8,88,77,67,77,70,64,92,79,63,30.09,29.92,8,1,8,0.49
2013-7-9,75,70,66,68,65,63,91,86,78,30.13,30.06,5,1,5,0.00
2013-7-10,85,73,66,77,70,63,94,88,73,30.09,29.80,13,1,13,0.30
2013-7-11,86,76,72,75,72,68,95,87,65,29.95,29.77,10,2,10,0.12
2013-7-12,85,74,67,69,61,56,92,66,43,30.22,29.95,8,2,8,0.00
2013-7-13,84,74,66,70,64,59,88,73,56,30.33,30.22,7,1,7,0.00
2013-7-14,96,82,70,76,71,66,94,73,46,30.31,30.21,6,1,6,0.00
2013-7-15,97,84,71,76,71,67,90,68,43,30.22,30.10,8,1,8,0.00
2013-7-16,98,85,72,74,69,64,81,62,41,30.18,30.12,10,2,10,0.00
2013-7-17,96,85,72,75,71,66,88,65,42,30.19,29.98,9,2,9,0.00
2013-7-18,98,85,74,75,72,65,91,67,38,30.03,29.95,10,2,10,0.05
2013-7-19,99,87,73,78,73,69,91,67,41,29.95,29.71,16,4,16,0.00
2013-7-20,96,85,77,76,70,64,76,60,47,29.82,29.66,13,3,13,0.00
2013-7-21,87,76,67,68,65,61,86,68,51,30.01,29.82,5,1,5,0.00
2013-7-22,86,75,69,72,67,64,89,77,59,30.04,29.91,7,1,7,0.00
2013-7-23,72,70,69,67,66,65,92,87,80,29.91,29.75,4,1,4,0.09
2013-7-29,78,75,71,72,69,67,87,81,75,30.01,29.88,6,2,6,0.01
2013-7-30,86,76,64,66,59,55,91,59,37,30.10,29.97,12,2,12,0.00
2013-7-31,85,74,62,64,60,54,86,64,37,30.14,30.04,7,2,7,0.00
2013-8-1,86,71,61,68,62,57,90,75,44,30.05,29.88,11,2,11,0.05
2013-8-2,86,73,65,72,64,57,95,77,39,29.88,29.68,9,2,9,0.56
2013-8-3,82,73,64,64,60,56,86,67,45,29.82,29.66,8,2,8,0.00
2013-8-4,84,71,59,64,58,54,85,66,43,29.81,29.67,7,2,7,0.08
2013-8-5,78,68,57,54,46,38,82,49,26,30.06,29.78,11,2,11,2.59
2013-8-6,84,67,51,59,51,46,86,60,32,30.17,30.06,8,1,8,0.00
2013-8-7,83,70,55,62,55,50,88,63,33,30.20,30.11,12,2,12,0.00
2013-8-8,83,74,64,71,65,56,89,76,64,30.13,30.01,13,3,13,0.03
2013-8-9,75,73,72,74,71,68,95,91,85,30.03,29.74,11,3,11,1.44
2013-8-10,87,76,64,71,61,50,95,65,33,30.03,29.79,13,2,13,0.02
2013-8-11,83,70,55,59,55,51,88,61,34,30.09,30.00,8,1,9,0.00
2013-8-12,84,72,59,62,58,52,90,64,35,30.04,29.92,10,2,10,0.00
2013-8-13,76,70,66,69,64,60,91,82,67,29.93,29.69,7,1,7,0.03
2013-8-14,77,69,62,64,55,51,92,63,42,29.97,29.67,13,3,14,0.00
2013-8-15,82,68,54,56,52,47,86,59,33,30.12,29.97,13,2,13,0.00
2013-8-16,82,68,54,58,54,49,88,63,39,30.20,30.11,8,2,8,0.00
2013-8-17,86,70,56,66,58,52,88,68,42,30.29,30.20,7,1,7,0.00
2013-8-18,84,71,58,66,60,55,89,70,43,30.29,30.09,8,1,8,0.00
2013-8-19,87,74,64,65,61,59,88,68,42,30.09,29.95,8,2,8,0.00
2013-8-20,89,76,63,68,63,58,85,64,42,30.10,29.98,6,1,6,0.00
2013-8-21,90,77,63,69,64,59,89,66,42,30.15,30.03,8,2,8,0.00
2013-8-22,91,78,64,72,66,60,89,70,42,30.04,29.82,12,3,12,0.00
2013-8-23,85,75,65,69,58,48,85,59,38,30.15,29.83,11,3,11,0.00
2013-8-24,82,68,54,56,50,45,80,55,30,30.32,30.15,8,2,8,0.00
2013-8-25,86,70,53,62,52,48,86,58,30,30.37,30.18,9,2,12,0.00
2013-8-26,85,73,65,68,62,56,87,71,54,30.18,29.87,12,3,12,0.01
2013-8-27,89,77,69,72,67,63,89,72,50,29.92,29.84,6,1,6,0.00
2013-8-28,91,75,63,72,65,60,90,73,49,30.00,29.87,7,1,7,0.00
2013-8-29,69,66,62,65,62,58,91,85,80,30.10,29.98,8,1,8,0.01
2013-8-30,86,72,59,68,63,56,93,74,52,30.04,29.82,9,2,9,0.00
2013-8-31,82,75,68,75,70,64,94,86,75,29.87,29.78,7,2,7,0.10
2013-9-1,86,77,71,74,71,68,94,82,64,29.90,29.79,9,3,9,0.17
2013-9-2,79,74,72,76,72,70,95,92,83,29.88,29.72,6,1,6,0.61
2013-9-3,86,74,66,74,68,58,95,80,60,29.82,29.71,8,2,8,0.00
2013-9-4,83,72,59,64,57,54,90,63,37,29.92,29.81,10,2,10,0.00
2013-9-5,76,66,55,60,51,42,84,61,33,30.16,29.86,13,2,13,0.00
2013-9-6,75,60,46,49,43,38,83,57,29,30.26,30.09,9,2,9,0.00
2013-9-7,82,66,50,59,51,45,87,61,33,30.09,29.85,10,2,10,0.00
2013-9-8,76,66,53,61,51,42,77,60,38,30.11,29.75,17,3,17,0.00
2013-9-9,71,59,44,50,44,39,87,61,37,30.25,30.10,9,2,9,0.00
2013-9-10,76,67,55,70,62,48,93,84,73,30.16,30.03,10,3,10,0.14
2013-9-11,96,82,68,78,71,66,94,72,45,30.07,29.93,12,3,12,0.00
2013-9-12,89,76,67,75,69,64,94,78,61,29.96,29.69,12,2,12,1.18
2013-9-13,79,69,60,73,64,54,95,86,66,29.77,29.59,11,2,11,0.23
2013-9-14,71,63,54,59,53,50,85,72,54,30.06,29.77,11,2,11,0.00
2013-9-15,73,61,48,56,49,45,92,68,37,30.17,30.05,10,2,10,0.00
2013-9-16,69,59,48,58,50,37,87,73,54,30.28,30.01,12,2,12,0.01
2013-9-17,68,53,41,45,40,36,86,65,37,30.44,30.28,9,2,9,0.00
2013-9-18,75,58,41,54,44,38,91,65,29,30.33,30.14,6,1,6,0.00
2013-9-19,84,66,47,61,52,43,90,65,38,30.14,30.04,6,1,6,0.00
2013-9-20,83,65,49,64,55,46,92,73,44,30.11,30.00,6,1,6,0.00
2013-9-21,76,65,50,65,58,46,95,79,58,30.04,29.74,15,4,16,0.00
2013-9-22,76,66,54,67,57,44,93,74,49,29.85,29.60,15,4,15,0.77
2013-9-23,67,55,48,45,42,39,76,63,43,30.01,29.85,23,3,23,0.00
2013-9-24,67,55,42,47,42,37,87,64,40,30.00,29.83,16,2,16,0.00
2013-9-25,72,57,44,54,48,41,90,72,43,30.00,29.89,8,1,8,0.00
2013-9-26,74,61,52,54,49,46,84,68,41,30.15,30.00,6,1,7,0.00
2013-9-27,69,61,52,56,52,48,87,74,58,30.27,30.15,8,1,8,0.00
2013-9-28,82,60,48,63,51,45,92,76,45,30.34,30.26,7,1,7,0.00
2013-9-29,73,57,47,58,48,43,93,75,41,30.28,30.14,5,1,6,0.00
2013-9-30,72,57,46,55,49,43,95,77,49,30.14,29.98,6,1,6,0.00
2013-10-1,84,63,48,60,52,45,92,71,35,29.98,29.85,9,1,10,0.00
2013-10-2,82,66,50,63,56,46,92,71,47,29.96,29.83,13,2,13,0.00
2013-10-3,79,66,50,59,52,45,90,65,32,30.10,29.96,8,1,8,0.00
2013-10-4,64,59,52,59,55,49,92,86,74,30.11,30.04,5,1,5,0.06
2013-10-5,75,63,58,62,56,54,92,80,56,30.14,30.07,8,1,8,0.00
2013-10-6,60,56,53,56,53,50,94,90,84,30.26,30.13,8,1,8,0.34
2013-10-7,79,66,56,71,62,54,96,87,67,30.16,29.80,20,4,20,0.29
2013-10-8,72,58,46,57,45,39,88,64,38,30.39,29.90,17,3,17,0.00
2013-10-9,69,52,41,50,43,37,88,72,46,30.49,30.38,9,1,9,0.00
2013-10-10,69,53,42,56,46,38,91,79,57,30.38,30.20,6,1,6,0.00
2013-10-11,77,60,47,57,47,38,91,68,28,30.20,30.12,8,1,8,0.00
2013-10-12,58,54,49,54,50,44,91,88,83,30.42,30.17,10,2,10,0.01
2013-10-13,66,52,42,56,46,38,94,80,57,30.47,30.39,8,1,8,0.00
2013-10-14,66,52,38,50,42,36,95,72,40,30.42,30.25,7,1,7,0.01
2013-10-15,65,58,53,55,51,48,89,79,65,30.28,30.19,8,1,8,0.00
2013-10-16,63,57,54,55,52,51,92,84,65,30.20,29.92,6,1,6,0.00
2013-10-17,76,62,53,62,52,46,96,75,37,29.93,29.72,10,2,10,0.00
2013-10-18,73,63,53,60,50,38,94,66,43,29.91,29.61,17,4,17,0.05
2013-10-19,70,56,40,47,41,35,87,60,39,29.98,29.76,10,2,10,0.00
2013-10-20,67,55,42,49,40,34,91,60,35,30.02,29.69,14,3,14,0.01
2013-10-21,68,51,36,44,38,31,87,64,38,30.12,29.99,10,2,10,0.00
2013-10-22,64,53,43,54,45,38,90,76,57,30.00,29.72,10,2,10,0.02
2013-10-23,58,46,36,42,35,32,89,66,43,29.81,29.59,7,1,7,0.00
2013-10-24,57,48,40,37,31,26,79,55,36,29.88,29.64,16,4,16,0.00
2013-10-25,53,43,34,37,31,25,86,65,43,30.15,29.88,12,2,13,0.00
2013-10-26,55,38,29,36,27,24,88,69,33,30.15,29.90,17,2,17,0.00
2013-10-28,60,51,37,36,31,23,59,48,40,30.36,30.08,16,4,16,0.00
2013-10-29,57,39,27,33,22,18,79,54,30,30.45,30.35,8,1,8,0.00
2013-10-30,51,39,31,41,31,21,87,74,60,30.37,30.20,5,1,5,0.04
2013-10-31,61,45,31,58,42,28,95,88,82,30.24,29.79,14,2,14,0.12
2013-11-1,70,65,58,63,58,52,93,77,61,29.79,29.41,26,8,26,0.04
2013-11-2,73,56,43,53,44,39,89,65,36,29.74,29.60,10,2,10,0.00
2013-11-3,52,42,32,46,28,16,83,61,35,30.43,29.74,9,3,11,0.00
2013-11-4,32,31,30,18,18,17,60,58,56,30.47,30.43,3,1,4,0.00
2013-11-5,49,42,36,30,29,27,77,61,45,30.57,30.51,3,0,3,0.00
2013-11-6,61,50,36,48,40,30,83,70,51,30.51,30.03,16,4,16,0.00
2013-11-7,64,55,41,57,49,35,89,82,70,30.03,29.67,15,4,15,0.11
2013-11-8,54,41,33,41,29,24,80,63,45,30.08,29.81,15,3,15,0.03
2013-11-9,50,41,33,29,25,21,68,54,38,30.21,30.03,13,3,13,0.00
2013-11-10,54,45,39,44,36,29,93,71,54,30.03,29.73,13,2,13,0.07
2013-11-11,56,47,40,33,29,25,68,51,36,30.10,29.84,17,4,17,0.00
2013-11-12,48,36,28,38,24,16,84,60,50,30.18,29.87,16,4,16,0.05
2013-11-13,42,33,26,20,15,11,65,48,37,30.29,30.14,14,4,14,0.00
2013-11-14,52,40,29,29,22,16,73,51,33,30.14,30.02,16,3,16,0.00
2013-11-15,60,41,27,27,22,16,79,51,18,30.19,30.09,10,2,10,0.00
2013-11-16,65,44,33,36,28,24,76,56,25,30.32,30.17,7,1,7,0.00
2013-11-17,52,43,31,50,38,25,93,84,74,30.32,29.85,5,1,5,0.03
2013-11-18,69,59,49,61,48,32,96,69,41,29.85,29.52,17,4,17,0.20
2013-11-19,49,39,32,32,20,16,53,46,34,30.28,29.65,25,7,25,0.00
2013-11-20,46,34,25,21,16,13,68,47,32,30.63,30.28,18,4,18,0.00
2013-11-21,52,35,20,29,19,14,80,56,29,30.64,30.36,11,1,11,0.00
2013-11-22,44,41,38,41,37,26,95,85,63,30.36,29.81,5,1,5,0.12
2013-11-23,49,40,30,45,28,12,95,64,42,29.92,29.77,18,6,18,0.01
2013-11-24,32,25,20,19,7,-1,82,47,31,30.18,29.78,24,8,24,0.00
2013-11-25,20,20,19,0,-1,-1,41,40,39,30.23,30.18,13,6,13,0.00
2013-11-26,38,34,29,31,24,15,87,66,47,30.34,30.07,10,2,10,0.11
2013-11-27,63,53,35,60,51,31,96,93,87,30.06,29.23,15,4,15,1.54
2013-11-29,39,28,19,17,8,4,63,44,32,30.73,30.55,11,3,11,0.00
2013-11-30,41,25,13,22,14,7,81,64,33,30.80,30.43,8,1,8,0.00
2013-12-1,38,35,31,36,30,22,93,83,70,30.43,30.02,8,1,8,0.18
2013-12-2,40,39,37,38,36,35,94,92,91,30.03,29.93,8,1,8,0.01
2013-12-3,54,40,34,44,35,29,92,81,61,29.95,29.85,8,2,8,0.00
2013-12-4,42,33,28,33,27,25,91,80,57,30.20,29.95,10,1,10,0.00
2013-12-5,42,38,28,41,34,25,95,88,81,30.22,29.90,6,1,6,0.02
2013-12-6,49,45,34,47,40,31,95,85,63,30.17,29.85,11,2,11,0.10
2013-12-7,46,34,24,41,28,19,92,79,60,30.45,30.08,13,2,13,0.15
2013-12-8,31,27,20,23,20,16,90,75,61,30.59,30.44,5,1,5,0.00
2013-12-9,37,32,26,35,29,19,94,87,66,30.50,29.88,5,1,7,0.14
2013-12-10,36,32,25,34,27,14,95,83,62,29.98,29.82,12,3,12,0.01
2013-12-11,36,26,18,20,17,13,87,68,48,30.19,29.98,16,4,16,0.01
2013-12-12,33,23,17,19,7,0,81,53,34,30.26,30.05,17,4,17,0.00
2013-12-13,33,21,13,19,11,1,75,65,51,30.41,29.97,15,4,15,0.00
2013-12-14,18,14,9,13,3,-3,88,64,48,30.62,30.18,13,3,13,0.00
2013-12-15,29,22,16,27,20,13,92,90,85,30.20,29.43,18,4,18,0.00
2013-12-16,36,24,12,21,13,4,88,65,44,30.20,29.72,16,4,16,0.00
2013-12-17,20,12,-1,16,6,-7,90,77,53,30.29,29.96,14,2,14,0.00
2013-12-18,19,17,16,15,14,13,88,87,87,29.97,29.91,8,3,8,0.00
2013-12-19,41,35,29,26,24,22,81,66,52,30.11,29.94,14,3,14,0.06
2013-12-20,51,38,30,36,31,24,85,76,54,30.11,29.90,8,1,8,0.10
2013-12-21,56,45,35,47,39,31,91,80,65,29.95,29.84,8,2,8,0.00
2013-12-22,44,37,33,41,34,31,95,92,85,30.04,29.82,11,2,11,0.09
2013-12-23,37,34,32,36,32,30,95,94,93,30.11,29.98,6,1,6,0.24
2013-12-24,37,32,25,35,24,14,95,73,53,30.20,30.05,16,3,16,0.01
2013-12-25,25,23,22,14,11,9,63,59,56,30.26,30.20,16,6,16,0.00
2013-12-26,30,25,17,26,21,14,90,87,75,30.36,30.08,4,1,4,0.00
2013-12-27,34,25,12,25,18,9,92,76,61,30.26,30.18,10,2,10,0.03
2013-12-28,63,33,21,47,25,16,88,73,43,30.20,29.97,11,2,11,0.05
2013-12-29,40,34,28,35,30,23,93,84,71,30.03,29.46,18,2,18,1.06
2013-12-30,44,33,16,36,24,4,94,71,44,30.18,29.51,19,4,19,0.01
2013-12-31,28,18,11,14,5,-1,79,57,35,30.18,30.02,8,2,8,0.00
2014-1-1,32,21,16,13,8,5,73,58,39,30.38,30.16,16,3,16,0.00
2014-1-2,19,10,1,12,5,-3,84,81,71,30.36,29.89,19,5,19,0.00